free website hit counter

Jackpot

Texas Poker Multi Jackpot System

Kini Telah hadir Jackpot SUPER ROYAL FLUSH

Kini Telah hadir Jackpot 2000 (khusus table VIP keatas).

Ikutilah global jackpot yang tersedia di system kami, dengan system jackpot terbaru dan pertama di indonesia, anda dapat membeli jackpot dengan harga 100 rupiah saja dan menangkan hadiahnya hingga puluhan juta rupiah.

Jackpot bukanlah suatu keharusan untuk dibeli, namun kami memberikan suatu fitur tambahan untuk member tercinta dari www.668poker.net.

Terdapat tiga pilihan harga jackpot yang bisa anda beli yaitu :100,500,1000 dan 2000(khusus table VIP Keatas) rupiah.

Hadiah dari Multi jackpot system www.668poker.net

  1. full house x 10 harga jackpot yang anda beli.
      (contoh:anda membeli 1000 maka:1000 X10 = 10.000)
  2. four of kind x 250 harga jackpot yang anda beli
      (contoh:anda membeli 1000 maka:1000 X250 = 250.000)
  3. Straight flush x 1200
      (contoh:anda membeli 1000 maka:1000 X1200 = 1.200.000)
  4. Royal flush x 10000 harga jackpot yang anda beli
      (contoh:anda membeli 1000 maka:1000 X10000 = 10.000.000)
  5. SUPER ROYAL FLUSH x 30000 harga jackpot yang anda beli
      (contoh:anda membeli 1000 maka:1000 X30000 = 30.000.000)

Kondisi kartu

  1. full house adalah kondisi kartu dimana kartu anda dan kartu tengah dengan total 7 kartu bisa mendapatkan nilai 5 kartu dengan kombinasi 1 tris(three of kind) dan 1 pair, contoh 3 kartu 10 dan 2 kartu 5
  2. Four of kind adalah kondisi kartu dimana kartu anda dan kartu tengah dengan total 7 kartu bisa mendapatkan nilai 5 kartu dengan kombinasi 4 kartu yang sama jumlah dan 1 kartu apapun juga contoh anda mendapatkan 4 buah kartu angka 3 dan 1 kartu apapun.
  3. Staright flush adalah kondisi kartu dimana kartu anda dan kartu tengah dengan total 7 kartu bisa mendapatkan nilai 5 kartu dengan kombinasi seri / staright dengan kembang yang sama contoh : urutan kartu dari angka 5, 6, 7, 8 , 9 10 dengan kembang yg sama misalnya as hati
  4. Royal flush adalah kondisi kartu dimana kartu anda dan kartu tengah dengan total 7 kartu bisa mendapatkan nilai 5 kartu dengan kombinasi seri / staright dengan kembang yang sama tetapi kartu tersebut haruslah dimulai dari 10. contoh 10, Queen, Jack, King dan aces dengan kembang yang sama
  5. Super Royal flush adalah kondisi kartu dimana Kedua kartu anda digabung dengan 3 kartu pertama meja haruslah royal flush. contoh kartu anda 10,Queen kembang sama dan 3 kartu pertama meja adalah Jack, King dan aces dengan kembang yang sama

Demikian adalah penjelasan dari Multi Jackpot www.668poker.net terima kasih dan selamat bermain salam hoki dari kami

Texas Poker Jackpot Winner

TOP SUPER ROYAL FLUSH
No.TanggalNamaPriceWin
123/05 16:49MANTUNGGGSuper Royal flush6,000,000
223/05 12:44CRIZ05Super Royal flush6,000,000
323/05 06:58MEJEWSuper Royal flush15,000,000
423/05 04:35MIZA03Super Royal flush15,000,000
523/05 02:38CERPE12Super Royal flush30,000,000
TOP ROYAL FLUSH
No.TanggalNamaPriceWin
123/05 19:39BIANQRoyal flush2,000,000
223/05 19:39VION27Royal flush1,000,000
323/05 19:39ZETTEMPURRoyal flush5,000,000
423/05 19:39BAWON_77Royal flush2,000,000
523/05 19:30RAKET18Royal flush5,000,000
TOP STRAIGHT FLUSH
No.TanggalNamaPriceWin
123/05 20:01WAYGITUStraight Flush2,400,000
223/05 20:00M_MAULANA3Straight Flush600,000
323/05 19:59RESPEK01Straight Flush240,000
423/05 19:59PCX_88Straight Flush240,000
523/05 19:58SIFUOJINStraight Flush240,000
LATEST JACKPOT
No.TanggalNamaPriceWin
123/05 20:01MAWARDI46Full House5,000
223/05 20:01HAZARD_100Full House10,000
323/05 20:01CEMEL88Full House10,000
423/05 20:01SEBLU21Full House2,000
523/05 20:01DNANRAFull House2,000
623/05 20:01W4W99Full House1,000
723/05 20:01ADA123456Full House5,000
823/05 20:01G4G4H94Full House2,000
923/05 20:01ALIVE17Four Of A Kind250,000
1023/05 20:01PADIDIT01Full House10,000
1123/05 20:01IWANWIJENFull House1,000
1223/05 20:01HAMBA050Full House5,000
1323/05 20:01MIV22Full House2,000
1423/05 20:01BALABO30JPFull House2,000
1523/05 20:01SLMT12Four Of A Kind25,000
1623/05 20:01LIUYANG666Full House20,000
1723/05 20:01DUDI0509Full House20,000
1823/05 20:01BH13ZZH1NXFull House5,000
1923/05 20:01MUHAMAD889Full House1,000
2023/05 20:01NGLOCOFull House10,000
2123/05 20:01KARAPAI6Full House2,000
2223/05 20:01PVAUC6ZGBHFull House5,000
2323/05 20:01WAYGITUStraight Flush2,400,000
2423/05 20:01J4CKRY4NFull House5,000
2523/05 20:01PALPULFull House20,000
2623/05 20:01M181080Full House5,000
2723/05 20:01JOSEMARTFull House20,000
2823/05 20:01VJLYQL476WFull House2,000
2923/05 20:01DEWAPOKER77Full House20,000
3023/05 20:01ABP_26Full House2,000
3123/05 20:01PRISS77Full House20,000
3223/05 20:01MINHOO12Full House5,000
3323/05 20:01DEKI9090Full House2,000
3423/05 20:01ECAEBELLFull House10,000
3523/05 20:01JIMBROFull House20,000
3623/05 20:00LAPBOL88Full House5,000
3723/05 20:00BABAY006Full House2,000
3823/05 20:00ASALOLEY05Full House5,000
3923/05 20:00MATAUANGQQFull House2,000
4023/05 20:00M_MAULANA3Straight Flush600,000
4123/05 20:00PD4DNAMPES55Full House5,000
4223/05 20:00KGIHLUMQHRFull House1,000
4323/05 20:00SARANBUNNYFull House5,000
4423/05 20:00SUGEST23Full House1,000
4523/05 20:00TRIST4N99Full House1,000
4623/05 20:00HOKILAHKAUFull House2,000
4723/05 20:00GONOK123Full House2,000
4823/05 20:00ROTPUROKFull House5,000
4923/05 20:00EPIDEMIC88Full House2,000
5023/05 20:00KANTONG18Four Of A Kind50,000

Domino Multi Jackpot System

Ikutilah global jackpot yang tersedia di system kami, dengan system jackpot terbaru dan pertama di indonesia, anda dapat membeli jackpot dengan harga 100 rupiah saja dan menangkan hadiahnya hingga puluhan juta rupiah.

Jackpot bukanlah suatu keharusan untuk dibeli, namun kami memberikan suatu fitur tambahan untuk member tercinta dari www.668poker.net.

Terdapat tiga pilihan harga jackpot yang bisa anda beli yaitu :100,500 dan 1000 rupiah.

Hadiah dari Multi jackpot system www.668poker.net

  1. Murni Kecil x 50 harga jackpot yang anda beli.
      (contoh:anda membeli 1000 maka:1000 X 50 = 50.000)
  2. Murni Besar x 50 harga jackpot yang anda beli
      (contoh:anda membeli 1000 maka:1000 X 50 = 50.000)
  3. BALAK x 100 harga jackpot yang anda beli
      (contoh:anda membeli 1000 maka:1000 X 100 = 100.000)
  4. ENAM DEWA x 6666 harga jackpot yang anda beli
      (contoh:anda membeli 1000 maka:1000 X 6666 = 6.666.000)

Demikian adalah penjelasan dari Multi Jackpot www.668poker.net terima kasih dan selamat bermain salam hoki dari kami

Domino Jackpot Winner

TOP ENAM DEWA
No.TanggalNamaPriceWin
123/05 16:47SAHADAD99murni enam6,666,000
223/05 15:22LOPEKBUGImurni enam6,666,000
323/05 14:42BAMBUPETUXmurni enam6,666,000
423/05 14:10JUNMET02murni enam666,600
523/05 11:42RAWU6666murni enam6,666,000
TOP BALAK
No.TanggalNamaPriceWin
123/05 19:59ZETANAbalak100,000
223/05 19:59GANTENK88balak10,000
323/05 19:58MAMAX78balak100,000
423/05 19:55HOKI255balak10,000
523/05 19:52RELLY27balak100,000
LATEST JACKPOT
No.TanggalNamaPriceWin
123/05 20:01BOTIL555murni besar50,000
223/05 20:01ANA1303murni kecil50,000
323/05 20:00ELORAmurni besar50,000
423/05 20:00AMEKROBERTmurni besar5,000
523/05 19:59NANGDOYmurni besar25,000
623/05 19:59ZETANAbalak100,000
723/05 19:59P9X8YDUFZ9murni besar5,000
823/05 19:59GANTENK88balak10,000
923/05 19:58MAMAX78balak100,000
1023/05 19:58KIAN30murni besar50,000
1123/05 19:58EGHA1993murni kecil25,000
1223/05 19:58INPETOL87murni besar25,000
1323/05 19:56NKRI211lucky992,500
1423/05 19:56BOT3L6666lucky992,500
1523/05 19:56BCHECKlucky9925,000
1623/05 19:56KISMEKQQmurni kecil5,000
1723/05 19:56NAZRAI12murni kecil25,000
1823/05 19:55WINER_9999murni kecil25,000
1923/05 19:55HOKI255balak10,000
2023/05 19:54RAEL081murni besar5,000
2123/05 19:54B444YUUUmurni kecil50,000
2223/05 19:53POTLOT007murni kecil25,000
2323/05 19:53RHEN4T4murni kecil5,000
2423/05 19:53HOKKY_1808murni kecil5,000
2523/05 19:52ACTIVE994murni kecil50,000
2623/05 19:52RELLY27balak100,000
2723/05 19:52VESPA889balak10,000
2823/05 19:52GEMPIT1234balak10,000
2923/05 19:51NGARAWU030murni besar50,000
3023/05 19:50PLJM1286balak50,000
3123/05 19:49AJO72lucky9925,000
3223/05 19:49DAN_RPK99murni kecil25,000
3323/05 19:49KAYL999murni kecil50,000
3423/05 19:49POTLOT007murni kecil25,000
3523/05 19:49ME2T02murni kecil5,000
3623/05 19:49GEVIN238murni kecil5,000
3723/05 19:48PUKIAT1murni besar25,000
3823/05 19:47MASTER091balak100,000
3923/05 19:46LOLOLO9murni kecil5,000
4023/05 19:46ALPARIZI12balak100,000
4123/05 19:45MARYONO487murni kecil25,000
4223/05 19:45RIMBUNmurni kecil50,000
4323/05 19:45SM4LL99murni besar50,000
4423/05 19:45UWANNKK11murni kecil5,000
4523/05 19:45SULIS09murni kecil50,000
4623/05 19:45KONA53murni besar50,000
4723/05 19:44N4G4EM4Smurni besar50,000
4823/05 19:43TEKOS1234murni kecil5,000
4923/05 19:43TRASI212murni kecil25,000
5023/05 19:42WIRO505murni kecil50,000

Ceme Multi Jackpot System

Jackpot dilihat dari gabungan kartu pemain dengan kartu bandar. Bandar harus membeli jackpot sebanyak jumlah player yang sedang duduk. Sebagai contoh bila terdapat 3 pemain duduk bermain, dan bandar memutuskan untuk membeli jackpot Rp 1.000, maka pada periode tersebut bandar akan membeli jackpot sebanyak 3xRp1.000 = Rp3.000.

Jackpot bukanlah suatu keharusan untuk dibeli, namun kami memberikan suatu fitur tambahan untuk member tercinta dari www.668poker.net.

Terdapat tiga pilihan harga jackpot yang bisa anda beli yaitu :100,500 dan 1000 rupiah.

Hadiah dari Multi jackpot system www.668poker.net

  1. Murni Kecil x 50 harga jackpot yang anda beli.
      (contoh:anda membeli 1000 maka:1000 X 50 = 50.000)
  2. Murni Besar x 50 harga jackpot yang anda beli
      (contoh:anda membeli 1000 maka:1000 X 50 = 50.000)
  3. BALAK x 200 harga jackpot yang anda beli
      (contoh:anda membeli 1000 maka:1000 X 200 = 200.000)
  4. ENAM DEWA x 6666 harga jackpot yang anda beli
      (contoh:anda membeli 1000 maka:1000 X 6666 = 6.666.000)

Demikian adalah penjelasan dari Multi Jackpot www.668poker.net terima kasih dan selamat bermain salam hoki dari kami

Ceme Jackpot Winner

TOP ENAM DEWA
No.TanggalNamaPriceWin
123/05 19:46HAPPY688murni enam6,666,000
223/05 19:38LENDING01murni enam6,666,000
323/05 19:28WAKAKA21murni enam6,666,000
423/05 19:24CUE3LLLmurni enam6,666,000
523/05 19:24RZ45AAmurni enam6,666,000
TOP BALAK
No.TanggalNamaPriceWin
123/05 20:01WEDUS4567balak100,000
223/05 19:59KUNTUL125balak20,000
323/05 19:59CALO46balak100,000
423/05 19:59PERMANA221balak100,000
523/05 19:58S333N4NGbalak200,000
LATEST JACKPOT
No.TanggalNamaPriceWin
123/05 20:01RISKY9090murni besar50,000
223/05 20:01NATUS99murni besar50,000
323/05 20:01HOKIBENTOOmurni besar50,000
423/05 20:01SEGELAP09murni besar5,000
523/05 20:01SAKTI57murni besar50,000
623/05 20:01GYAN25murni besar50,000
723/05 20:01AGOES99999murni besar5,000
823/05 20:01KOPIEEmurni kecil5,000
923/05 20:01WEDUS4567balak100,000
1023/05 20:00CHIPEKOmurni kecil50,000
1123/05 20:00DUKUNBRZmurni kecil5,000
1223/05 20:00LEMANG123murni besar25,000
1323/05 20:00MURAY9999murni kecil50,000
1423/05 20:00R8EPCER5HDmurni kecil50,000
1523/05 20:00MURAY9999murni kecil50,000
1623/05 20:00IKANKOOII9murni kecil50,000
1723/05 20:00DN4DALFATHAN01murni kecil25,000
1823/05 20:00HAEDOOMmurni kecil25,000
1923/05 19:59BEREBARA09murni besar50,000
2023/05 19:59MAKAYU2murni besar50,000
2123/05 19:59CHIPEKOmurni kecil50,000
2223/05 19:59GOPER102murni kecil25,000
2323/05 19:59NDAYAX71murni kecil50,000
2423/05 19:59JAYAA112murni kecil50,000
2523/05 19:59KUNTUL125balak20,000
2623/05 19:59CALO46balak100,000
2723/05 19:59PERMANA221balak100,000
2823/05 19:59HAFIZHMUHmurni kecil50,000
2923/05 19:59GODJOB93murni kecil5,000
3023/05 19:59SAYAN916murni kecil50,000
3123/05 19:59PT4DKAMEHImurni kecil5,000
3223/05 19:59LB991881murni besar5,000
3323/05 19:58POKEY86murni kecil25,000
3423/05 19:58AS808080murni kecil50,000
3523/05 19:58S333N4NGbalak200,000
3623/05 19:58BF86252Ebalak200,000
3723/05 19:58CUE3LLLbalak200,000
3823/05 19:58UCHOK133balak200,000
3923/05 19:58UDUDOMmurni kecil50,000
4023/05 19:58FAJRIL27murni besar25,000
4123/05 19:58PERKI111murni kecil50,000
4223/05 19:58HERIELBAmurni kecil50,000
4323/05 19:58CLUBSIGITmurni kecil50,000
4423/05 19:58SPR060_murni kecil5,000
4523/05 19:58BAWUK16murni besar25,000
4623/05 19:58YOIBROW89murni besar50,000
4723/05 19:58SOFYAN22murni kecil50,000
4823/05 19:58A57CA585murni kecil50,000
4923/05 19:57PANAD0LLmurni kecil50,000
5023/05 19:57C2FB0CF1murni kecil50,000